Weather History for Crestview, FL

Change the Weather History Date:

Thursday, November 17, 2011

  Actual Average Record
Temperature  
Mean Temperature 56 °F -  
Max Temperature 67 °F - - ()
Min Temperature 40 °F - - ()
Degree Days  
Heating Degree Days 10    
Growing Degree Days 6 (Base 50)    
Moisture  
Dew Point 47 °F    
Average Humidity 65    
Maximum Humidity 95    
Minimum Humidity 30    
Precipitation  
Precipitation 0.00 in - - ()
Sea Level Pressure  
Sea Level Pressure 30.12 in    
Wind  
Wind Speed 10 mph (NNW)    
Max Wind Speed 17 mph    
Max Gust Speed 25 mph    
Visibility 10 miles    
Events      
T = Trace of Precipitation, MM = Missing Value Source: NWS Daily Summary

Daily Weather History Graph

Daily Weather History Graph

Search for Another Location

Airport:

Trip Planner

Search our weather history database for the weather conditions in past years. The results will help you decide how hot, cold, wet, or windy it might be!

Date:

Astronomy

Nov. 17, 2011 Rise Set
Actual Time 6:13 AM CST 4:47 PM CST
Civil Twilight 5:48 AM CST 5:13 PM CST
Nautical Twilight 5:19 AM CST 5:42 PM CST
Astronomical Twilight 4:50 AM CST 6:11 PM CST
Moon 10:58 PM CST (11/17) 11:29 AM CST (11/17)
Length of Visible Light 11h 25m
Length of Day
10h 34m
Waning Gibbous, 59% of the Moon is Illuminated
Nov 17
Waning Gibbous
Nov 18
Last Quarter
Nov 25
New
Dec 2
First Quarter
Dec 10
Full

Hourly Weather History & Observations

Time (CST) Temp. Windchill Dew Point Humidity Pressure Visibility Wind Dir Wind Speed Gust Speed Precip Events Conditions
12:55 AM 66.7 °F - 64.9 °F 94% 29.94 in 10.0 mi Variable 3.5 mph - N/A   Scattered Clouds
1:37 AM 66.2 °F - 64.4 °F 94% 29.95 in 10.0 mi WNW 9.2 mph - N/A   Mostly Cloudy
1:54 AM 66.2 °F - 64.4 °F 94% 29.96 in 9.0 mi NW 8.1 mph - N/A   Mostly Cloudy
1:55 AM 66.0 °F - 64.6 °F 95% 29.96 in 9.0 mi WNW 8.1 mph - N/A   Mostly Cloudy
2:13 AM 66.2 °F - 64.4 °F 94% 29.97 in 10.0 mi NW 11.5 mph - N/A   Mostly Cloudy
2:41 AM 66.2 °F - 64.4 °F 94% 29.98 in 10.0 mi NW 8.1 mph - N/A   Overcast
2:55 AM 65.3 °F - 63.1 °F 93% 29.97 in 10.0 mi NW 8.1 mph - N/A   Overcast
3:55 AM 63.9 °F - 59.0 °F 84% 30.01 in 10.0 mi NW 17.3 mph - N/A   Overcast
4:22 AM 62.6 °F - 57.2 °F 82% 30.03 in 10.0 mi NW 16.1 mph - N/A   Overcast
4:37 AM 60.8 °F - 55.4 °F 82% 30.04 in 10.0 mi NNW 10.4 mph - N/A   Overcast
4:55 AM 60.8 °F - 55.0 °F 81% 30.05 in 10.0 mi NNW 12.7 mph - N/A   Overcast
5:07 AM 60.8 °F - 53.6 °F 77% 30.06 in 10.0 mi NNW 16.1 mph - N/A   Overcast
5:55 AM 59.0 °F - 52.5 °F 79% 30.09 in 10.0 mi NNW 16.1 mph 23.0 mph N/A   Overcast
6:55 AM 58.8 °F - 52.2 °F 79% 30.12 in 10.0 mi NNW 10.4 mph 17.3 mph N/A   Mostly Cloudy
7:55 AM 59.0 °F - 50.9 °F 74% 30.15 in 10.0 mi NNW 16.1 mph 25.3 mph N/A   Mostly Cloudy
8:55 AM 60.8 °F - 46.4 °F 59% 30.21 in 10.0 mi North 13.8 mph - N/A   Partly Cloudy
9:55 AM 60.8 °F - 48.2 °F 63% 30.19 in 10.0 mi NNW 15.0 mph - N/A   Partly Cloudy
10:55 AM 64.4 °F - 46.4 °F 52% 30.19 in 10.0 mi North 13.8 mph 21.9 mph N/A   Clear
11:55 AM 66.4 °F - 43.2 °F 43% 30.17 in 10.0 mi North 15.0 mph 24.2 mph N/A   Clear
12:55 PM 67.1 °F - 38.1 °F 34% 30.15 in 10.0 mi North 16.1 mph 24.2 mph N/A   Clear
1:55 PM 66.9 °F - 34.9 °F 31% 30.16 in 10.0 mi NNW 15.0 mph 24.2 mph N/A   Clear
2:55 PM 65.8 °F - 33.1 °F 30% 30.16 in 10.0 mi North 15.0 mph - N/A   Clear
3:55 PM 63.5 °F - 31.3 °F 30% 30.19 in 10.0 mi North 11.5 mph - N/A   Clear
4:55 PM 59.0 °F - 32.0 °F 36% 30.21 in 10.0 mi North 8.1 mph - N/A   Clear
5:55 PM 54.5 °F - 30.7 °F 40% 30.23 in 10.0 mi North 8.1 mph - N/A   Clear
6:55 PM 51.6 °F - 30.7 °F 45% 30.26 in 10.0 mi NNW 8.1 mph - N/A   Clear
7:55 PM 50.0 °F - 31.1 °F 48% 30.29 in 10.0 mi North 9.2 mph - N/A   Clear
8:55 PM 47.8 °F - 30.7 °F 52% 30.30 in 10.0 mi North 8.1 mph - N/A   Clear
9:55 PM 46.0 °F 41.0 °F 30.0 °F 54% 30.29 in 10.0 mi North 10.4 mph - N/A   Clear
10:55 PM 44.1 °F 39.5 °F 28.0 °F 53% 30.29 in 10.0 mi North 8.1 mph - N/A   Clear
11:55 PM 40.6 °F 36.0 °F 27.7 °F 60% 30.28 in 10.0 mi North 6.9 mph - N/A   Clear